Location: Buanes
(43.7077°N, 0.4216°W)
Time: 23:48:24
(UTC+00:00)

Daily predictions for brighter satellites

Satellite Brightness Start Highest point End
(mag) Time Altitude Azimuth Time Altitude Azimuth Time Altitude Azimuth
ARIANE 5 R/B 3.1 16:51:05 10° SE 16:55:37 35° ENE 17:00:14 10° N
Iridium 51 3.8 16:52:46 10° S 16:55:51 78° W 16:59:03 10° N
Cosmos 1315 Rocket 3.7 16:53:22 10° SSW 16:57:04 49° WNW 17:00:49 10° N
Cosmos 2098 Rocket 3.2 16:56:38 10° SSE 17:00:26 51° E 17:04:56 10° NNE
Cosmos 1758 Rocket 3.6 16:56:12 10° N 17:00:28 56° E 17:04:39 10° SSE
Cosmos 2266 Rocket 4.4 16:54:54 10° N 17:00:36 38° ENE 17:06:11 10° SE
Cosmos 2208 Rocket 4.0 16:58:50 10° NNW 17:03:58 63° ENE 17:09:07 10° SSE
Cosmos 1980 Rocket 3.9 17:02:29 10° SE 17:05:06 13° E 17:07:43 10° ENE
Cosmos 2151 3.4 17:01:54 10° N 17:05:46 37° ENE 17:09:38 10° SE
Cosmos 1743 2.7 17:03:20 10° N 17:06:26 40° ENE 17:09:31 10° SSE
SL-08 ROCKET BODY 4.4 17:08:16 10° N 17:14:13 78° E 17:20:16 10° SSE
CBERS-1 4.3 17:10:04 10° S 17:15:09 73° WSW 17:20:17 10° NNW
NOSS 3-2 (C) 3.1 17:12:16 10° SSW 17:17:07 66° ESE 17:22:51 10° NE
NOSS 3-2 (A) 3.8 17:12:25 10° WSW 17:17:17 52° NW 17:23:07 10° NNE
SL-16 R/B 3.0 17:11:32 10° N 17:17:41 65° WNW 17:23:47 10° SSW
IGS 5A 3.7 17:14:39 10° S 17:18:35 68° W 17:22:33 10° NNW
CORIOLIS 4.1 17:13:16 10° SSE 17:18:36 77° ENE 17:23:56 10° N
Cosmos 2263 Rocket 3.4 17:14:34 10° N 17:18:41 20° NE 17:22:48 10° E
MOS 1 Rocket 3.7 17:18:10 10° SE 17:22:45 44° ENE 17:27:35 10° N
Cosmos 1626 Rocket 3.9 17:19:28 10° NNW 17:23:45 67° W 17:28:00 10° S
BREEZE M DEB (TANK) 1.5 17:21:16 10° WSW 17:24:04 87° NNW 17:25:20 20° ENE
Radarsat 4.5 17:19:57 10° SSE 17:25:05 74° ENE 17:30:17 10° N
GEOS 3 Rocket 4.1 17:20:25 10° NNE 17:25:45 65° NW 17:31:03 10° SW
AQUARIUS 4.3 17:21:33 10° SE 17:25:46 46° ENE 17:30:00 10° N
Cosmos 1933 3.7 17:23:01 10° SSE 17:26:35 39° E 17:30:11 10° NNE
SJ-12 3.7 17:24:58 10° SSE 17:28:39 55° ENE 17:32:22 10° N
Cosmos 1606 Rocket 3.9 17:25:55 10° SSE 17:30:03 42° E 17:34:14 10° NNE
Cosmos 2360 4.4 17:24:53 10° SSW 17:30:36 78° WNW 17:36:22 10° NNE
Cosmos 2084 Rocket 3.7 17:27:16 10° NNW 17:31:18 42° NE 17:35:18 10° ESE
Cosmos 2227 Rocket 2.6 17:26:36 10° NNW 17:31:52 38° ENE 17:37:06 10° SE
Thor Agena Rocket 3.9 17:26:42 10° S 17:31:54 72° WSW 17:37:05 10° NNW
BlueWalker 3 2.3 17:28:57 10° WNW 17:32:33 62° SW 17:36:08 10° SE
CZ-2D R/B 4.4 17:32:47 10° SE 17:36:19 27° ENE 17:39:50 10° N
Cosmos 1503 Rocket 4.0 17:35:03 10° SSW 17:40:18 87° ESE 17:45:33 10° NNE
Cosmos 724 4.3 17:34:18 10° NNW 17:40:22 84° ENE 17:46:15 10° SE
COSMO-SKYMED 1 3.6 17:39:14 20° ENE 17:40:24 23° E 17:43:42 10° SSE
BREEZE-M DEB (TANK) 4.0 17:39:27 10° WNW 17:42:38 46° NNE 17:48:33 18° E
IRS-1C 4.1 17:38:25 10° SSE 17:43:44 90° WSW 17:49:06 10° NNW
Cosmos 1697 Rocket 2.7 17:40:11 10° SSW 17:45:43 67° ESE 17:50:44 13° NNE
SAR-Lupe-3 3.8 17:45:05 37° NE 17:45:43 49° ESE 17:48:10 10° S
Lacrosse 5 rocket 3.4 17:46:23 10° NW 17:48:16 13° NNW 17:49:58 10° NNE
Cosmos 1354 Rocket 3.9 17:43:19 10° S 17:48:34 73° ESE 17:53:34 11° NNE
Okean 1-7 Rocket 3.4 17:46:27 10° N 17:50:52 84° E 17:55:13 10° S
Cosmos 1461 3.1 17:47:42 10° SW 17:51:33 62° NW 17:54:18 18° NNE
SJ-6F 4.2 17:48:45 10° SSE 17:52:42 77° ENE 17:56:43 10° N
Spot 4 Rocket 4.4 17:49:19 10° SE 17:54:03 40° ENE 17:58:49 10° N
Cosmos 1726 Rocket 3.7 17:50:43 10° S 17:55:16 59° E 17:59:49 10° NNE
Gbstr 26 Del rocket 2.6 17:57:11 10° SW 18:01:16 89° SSE 18:02:38 38° ENE
Cosmos 1655 Rocket 4.0 17:55:52 10° N 18:02:03 61° E 18:08:11 10° SSE
Cosmos 1898 Rocket 4.3 17:58:45 10° SSE 18:03:03 28° E 18:03:17 28° E
SKYMED 2 3.5 17:59:36 16° NNE 18:03:04 63° E 18:07:22 10° S
CENTAUR R/B 4.4 18:02:22 10° WNW 18:07:06 22° NNW 18:12:28 10° NNE
YAOGAN 1 2.6 18:04:49 10° SSE 18:08:54 49° ENE 18:13:01 10° N
Meteor 2-10 4.4 18:04:02 10° N 18:09:08 43° ENE 18:14:24 10° SE
NOSS 2-3 (C) 2.9 18:09:05 10° SSW 18:12:31 58° ESE 18:12:46 57° ESE
Meteor 1-26 Rocket 4.4 18:11:40 10° SSE 18:16:45 43° E 18:18:03 36° ENE
USA 238 DEB 3.5 18:11:17 10° SSW 18:17:09 58° ESE 18:19:56 33° ENE
USA 238 3.5 18:11:23 10° SSW 18:17:16 57° ESE 18:20:01 33° ENE
Cosmos 1867 3.6 18:14:35 10° NW 18:20:04 84° WSW 18:25:30 10° SSE
ATLAS CENTAUR R/B 3.8 18:19:47 10° WNW 18:21:54 17° WSW 18:23:57 10° SSW
Cosmos 2297 Rocket 3.7 18:19:29 10° NW 18:24:40 38° WSW 18:29:49 10° S
USA 215 4.2 18:22:49 27° NE 18:24:43 31° NNE 18:30:18 10° NW
Cosmos 1953 Rocket 3.4 18:20:44 10° N 18:25:12 82° E 18:29:38 10° S
Cosmos 372 Rocket 4.0 18:20:29 10° S 18:25:30 55° ESE 18:26:27 47° ENE
Cosmos-2242 3.3 18:21:42 10° S 18:25:05 46° SE 18:25:05 46° SE
Aureole 1 Rocket 3.1 18:22:32 10° S 18:26:36 60° ESE 18:27:17 54° ENE
ARIANE 5 R/B 4.4 18:30:15 10° SSW 18:34:40 30° W 18:39:09 10° NW
CZ-4C R/B 3.4 18:29:36 10° NW 18:36:51 66° WSW 18:45:36 10° SSE
USA 81 3.9 18:33:36 10° N 18:38:54 87° E 18:44:09 10° S
NOAA 6 3.8 18:34:09 10° SSE 18:39:13 71° ENE 18:44:19 10° N
BREEZE-M DEB (TANK) 4.2 18:32:27 10° SW 18:39:54 39° SSE 18:40:13 39° SE
Cosmos 2219 3.4 18:36:25 10° NNW 18:41:35 51° NE 18:41:35 51° NE
Helios 1A Rocket 4.4 18:45:32 23° SSW 18:45:32 23° SSW 18:46:57 10° SSW
OceanSat 1 rocket 4.5 18:39:09 10° SSE 18:43:55 86° ENE 18:48:40 10° NNW
SPOT 1/Viking Rocket 4.3 18:39:37 10° S 18:44:41 53° W 18:49:48 10° NNW
NOSS 2-3 (E) 4.0 18:42:47 10° WSW 18:46:11 45° NW 18:46:11 45° NW
Cosmos 1980 Rocket 2.1 18:42:34 10° SSW 18:48:14 87° WNW 18:49:48 50° NNE
NOSS 2-3 (D) 4.0 18:44:39 10° SW 18:47:59 47° WNW 18:47:59 47° WNW
Cosmos 2058 Rocket 3.2 18:47:14 10° SSW 18:51:41 73° W 18:51:55 71° NW
Nadezhda 2 Rocket 4.3 18:50:12 10° N 18:56:21 78° E 19:02:26 10° SSE
Cosmos 2369 3.9 18:50:53 10° S 18:55:44 57° SSE 18:55:44 57° SSE
Cosmos 2263 Rocket 2.3 18:57:32 10° NNW 19:03:13 76° WSW 19:04:58 46° S
Cosmos 1553 Rocket 3.8 18:58:35 10° S 19:04:43 89° W 19:06:49 45° N
COSMOS 2455 4.3 19:01:10 10° S 19:03:35 23° SSE 19:03:35 23° SSE
COSMO-SKYMED 1 4.1 19:15:34 30° WNW 19:15:43 31° WNW 19:19:20 10° SW
Cosmos 2227 Rocket 3.7 19:10:47 10° NW 19:15:49 34° WSW 19:20:48 10° SSW
H-2A R/B 4.3 19:28:20 10° SSW 19:29:33 16° SSW 19:29:33 16° SSW
